Zurück zum Katalog

THORAD AGENA D DEB

AktivSSO
NORAD 9666·DEBRIS·🇺🇸 United States

Gestartet Apr 8, 1970 von Vandenberg Space Force Base

Loading…

Nächste Überflüge (nächste 24 Stunden)

TLE

AktuellSource: Space-Track

Epoche: Sep 14, 2026, 15:40 UTC

1 09666U 70025NK  26257.65305731  .00001334  00000-0  15075-2 0  9994
2 09666  99.2723 218.2315 0114011  71.2340 103.6656 13.69532442765114

Verfolge THORAD AGENA D DEB in Echtzeit mit AllMySat

Download on the App Store